This is the latest recevied weather packets stored in our database for station/object N5RPG. If no packets are shown the sender has not sent any weather packets the latest 10 day(s).
| Time | Temp. | Humidity | Pressure | Rain* | Wind** | Luminosity | Snow |
|---|---|---|---|---|---|---|---|
| 1778157860 | 11.67° C | 90% | 1019.8 hPa | 0 mm | - | 82 W/m² | - |
| 1778157558 | 11.67° C | 91% | 1019.9 hPa | 0 mm | - | 42 W/m² | - |
| 1778157255 | 11.67° C | 92% | 1019.8 hPa | 0 mm | - | 39 W/m² | - |
| 1778156952 | 11.11° C | 92% | 1019.3 hPa | 0 mm | - | 62 W/m² | - |
| 1778156647 | 11.11° C | 92% | 1019.3 hPa | 0 mm | - | 43 W/m² | - |
| 1778156343 | 11.11° C | 92% | 1019.3 hPa | 0 mm | - | 46 W/m² | - |
| 1778156038 | 11.11° C | 92% | 1019.5 hPa | 0 mm | - | 42 W/m² | - |
| 1778155736 | 11.11° C | 92% | 1019.1 hPa | 0 mm | - | 30 W/m² | - |
| 1778155432 | 11.11° C | 92% | 1019.2 hPa | 0 mm | - | 25 W/m² | - |
| 1778155128 | 11.11° C | 92% | 1019 hPa | 0 mm | - | 27 W/m² | - |
| 1778154824 | 10.56° C | 92% | 1018.8 hPa | 0 mm | - | 19 W/m² | - |
| 1778154520 | 10.56° C | 92% | 1018.7 hPa | 0 mm | - | 12 W/m² | - |
| 1778154217 | 10.56° C | 92% | 1019 hPa | 0 mm | - | 9 W/m² | - |
| 1778153915 | 10.56° C | 92% | 1018.8 hPa | 0 mm | - | 7 W/m² | - |
| 1778153612 | 10.56° C | 92% | 1018.7 hPa | 0 mm | - | 4 W/m² | - |
| 1778153309 | 10.56° C | 92% | 1018.5 hPa | 0 mm | - | 2 W/m² | - |
| 1778153006 | 10.56° C | 91% | 1018.5 hPa | 0 mm | - | 1 W/m² | - |
| 1778152704 | 11.11° C | 91% | 1018.2 hPa | 0 mm | - | 1 W/m² | - |
| 1778152400 | 11.11° C | 91% | 1018 hPa | 0 mm | - | 0 W/m² | - |
| 1778152096 | 11.11° C | 91% | 1018.1 hPa | 0 mm | - | 0 W/m² | - |
| 1778151793 | 11.11° C | 91% | 1017.7 hPa | 0 mm | - | 0 W/m² | - |
| 1778151490 | 11.11° C | 91% | 1018 hPa | 0 mm | - | 0 W/m² | - |
| 1778151186 | 11.11° C | 91% | 1017.8 hPa | 0 mm | - | 0 W/m² | - |
| 1778150883 | 11.11° C | 91% | 1017.7 hPa | 0 mm | - | 0 W/m² | - |
| 1778150580 | 11.11° C | 91% | 1017.8 hPa | 0 mm | - | 0 W/m² | - |
* Rain latest hour (hover to see other rain measurements)
** Current wind speed in m/s (hover to see current wind gust speed)